Flag for U.S.A. Weather past 2 weeks in Farmington, New Mexico, U.S.A.

Now
68 °F

Passing clouds.


Feels Like: 68 °F
Forecast: 65 / 86 °F
Wind: 9 mph from East

Location: Four Corners Regional Airport

Current Time: Jul 31, 2014 at 7:57:50 AM

Latest Report: Jul 31, 2014 at 6:53 AM


Visibility: 10 mi

Pressure: 30.00 "Hg

Humidity: 63%

Dew point: 55 °F

Location of FarmingtonLocation

Historic Weather in Farmington — Graph

°F

Farmington temperature yesterday

Maximum temperature yesterday: 90 °F (at 5:53 PM)
Minimum temperature yesterday: 61 °F (at 6:53 AM)
Average temperature yesterday: 76 °F

Past Weeks' High & Low Weather Summary

 TemperatureHumidityPressure
High97 °F (Jul 22, 5:53 PM)87% (Jul 28, 12:53 AM)30.24 "Hg (Jul 28, 12:53 AM)
Low57 °F (Jul 22, 5:53 AM)7% (Jul 22, 5:53 PM)29.73 "Hg (Jul 17, 6:53 PM)
Average79 °F35%29.96 "Hg
* Reported Jul 16 5:53 AM — Jul 31 5:53 AM, Farmington, Weather by CustomWeather, © 2014

Note: Actual official high and low records may vary slightly from our data, if they occured in-between our weather recording intervals... More about our weather records

Advertising

Farmington weather history for previous 24 hours

 ConditionsComfort  
Time TempWeatherWind HumidityBarometerVisibility
5:53 AM
Jul 31
67 °FPassing clouds.12 mph68%29.97 "Hg10 mi
4:53 AM68 °FClear.7 mph61%29.97 "Hg10 mi
3:53 AM71 °FPassing clouds.7 mph49%29.96 "Hg10 mi
2:53 AM66 °FPassing clouds.6 mph52%29.96 "Hg10 mi
1:53 AM66 °FClear.7 mph52%29.95 "Hg10 mi
12:53 AM69 °FClear.5 mph45%29.94 "Hg10 mi
11:53 PM
Jul 30
70 °FClear.3 mph46%29.96 "Hg10 mi
10:53 PM73 °FClear.6 mph40%29.95 "Hg10 mi
9:53 PM79 °FClear.8 mph30%29.92 "Hg10 mi
8:53 PM82 °FSunny.7 mph23%29.90 "Hg10 mi
7:53 PM86 °FSunny.14 mph20%29.88 "Hg10 mi
6:53 PM88 °FSunny.15 mph18%29.90 "Hg10 mi
5:53 PM90 °FSunny.15 mph19%29.89 "Hg10 mi
4:53 PM87 °FScattered clouds.13 mph22%29.93 "Hg10 mi
3:53 PM87 °FPassing clouds.10 mph22%29.94 "Hg10 mi
2:53 PM88 °FPassing clouds.10 mph24%29.95 "Hg10 mi
1:53 PM88 °FSunny.14 mph24%29.96 "Hg10 mi
12:53 PM85 °FSunny.9 mph28%29.98 "Hg10 mi
11:53 AM83 °FSunny.10 mph27%30.00 "Hg10 mi
10:53 AM79 °FSunny.7 mph34%30.01 "Hg10 mi
9:53 AM76 °FSunny.No wind43%30.01 "Hg10 mi
8:53 AM71 °FSunny.No wind51%30.03 "Hg10 mi
7:53 AM67 °FPassing clouds.No wind61%30.03 "Hg10 mi
Weather by CustomWeather, © 2014

See weather overviewHow to use our weather pages